Great Bend, NY

2:38 AM EST on February 23, 2017 (GMT -0500)
Wheeler-Sack Army Air Field

Weather History for KGTB - January, 2014

Change the Weather History Date:

Saturday, January 25, 2014

  Actual Average Record
Temperature  
Mean Temperature 15 °F -  
Max Temperature 23 °F 22 °F 42 °F (1997)
Min Temperature 5 °F 5 °F -23 °F (2004)
Degree Days  
Heating Degree Days 50    
Moisture  
Dew Point 12 °F    
Average Humidity 78    
Maximum Humidity 93    
Minimum Humidity 46    
Precipitation  
Precipitation 0.00 in - - ()
Sea Level Pressure  
Sea Level Pressure 29.36 in    
Wind  
Wind Speed 19 mph (SSW)    
Max Wind Speed 29 mph    
Max Gust Speed 36 mph    
Visibility 6 miles    
Events Fog , Snow    
Averages and records for this station are not official NWS values.
T = Trace of Precipitation, MM = Missing Value Source: NWS Daily Summary

Daily Weather History Graph

Daily Weather History Graph

Search for Another Location

Airport or City:

Trip Planner

Search our weather history database for the weather conditions in past years. The results will help you decide how hot, cold, wet, or windy it might be!

Date:

Astronomy

Jan. 25, 2014 Rise Set
Actual Time 7:27 AM EST 5:03 PM EST
Civil Twilight 6:56 AM EST 5:34 PM EST
Nautical Twilight 6:21 AM EST 6:09 PM EST
Astronomical Twilight 5:46 AM EST 6:44 PM EST
Moon 1:55 AM EST (1/25) 12:02 PM EST (1/25)
Length of Visible Light 10h 38m
Length of Day
9h 36m
Waning Crescent, 34% of the Moon is Illuminated
Jan 25
Waning Crescent
Jan 30
New
Feb 6
First Quarter
Feb 14
Full
Feb 22
Last Quarter

Hourly Weather History & Observations

Time (EST) Temp. Windchill Dew Point Humidity Pressure Visibility Wind Dir Wind Speed Gust Speed Precip Events Conditions
12:58 AM 16.9 °F 1.2 °F -0.8 °F 46% 29.66 in 10.0 mi SSW 17.3 mph 29.9 mph N/A   Overcast
1:02 AM 15.8 °F -0.2 °F -0.4 °F 49% 29.62 in 10.0 mi SSW 17.3 mph 23.0 mph N/A Snow Light Snow
1:27 AM 15.8 °F -1.9 °F 5.0 °F 62% 29.61 in 9.0 mi SSW 21.9 mph 29.9 mph N/A Snow Light Snow
1:47 AM 15.8 °F -2.7 °F 6.8 °F 68% 29.60 in 2.5 mi SSW 24.2 mph 31.1 mph N/A Snow Light Snow
1:52 AM 14.0 °F -4.7 °F 8.6 °F 79% 29.60 in 3.0 mi SSW 23.0 mph 28.8 mph N/A Snow Light Snow
1:58 AM 14.7 °F -2.9 °F 8.4 °F 76% 29.65 in 4.0 mi SSW 20.7 mph - 0.00 in Snow Light Snow
2:13 AM 14.0 °F -5.1 °F 8.6 °F 79% 29.59 in 3.0 mi SSW 24.2 mph - N/A Snow Light Snow
2:53 AM 14.0 °F -4.7 °F 8.6 °F 79% 29.56 in 4.0 mi South 23.0 mph 32.2 mph N/A Snow Light Snow
2:58 AM 14.2 °F -4.1 °F 8.8 °F 79% 29.60 in 4.0 mi South 21.9 mph 31.1 mph 0.00 in Snow Light Snow
3:18 AM 14.0 °F -5.5 °F 8.6 °F 79% 29.55 in 5.0 mi South 25.3 mph 31.1 mph N/A Snow Light Snow
3:33 AM 14.0 °F -4.7 °F 8.6 °F 79% 29.54 in 5.0 mi South 23.0 mph 28.8 mph N/A   Overcast
3:58 AM 14.5 °F -3.6 °F 9.1 °F 79% 29.56 in 4.0 mi South 21.9 mph 27.6 mph 0.00 in Snow Light Snow
4:58 AM 14.5 °F -3.6 °F 9.5 °F 80% 29.52 in 4.0 mi South 21.9 mph 29.9 mph 0.00 in   Light Freezing Rain
5:03 AM 14.0 °F -4.3 °F 8.6 °F 79% 29.48 in 4.0 mi South 21.9 mph 29.9 mph N/A Snow Light Snow
5:09 AM 14.0 °F -4.7 °F 8.6 °F 79% 29.48 in 4.0 mi South 23.0 mph - N/A   Haze
5:49 AM 15.8 °F -2.3 °F 8.6 °F 73% 29.45 in 7.0 mi South 23.0 mph 29.9 mph N/A   Scattered Clouds
5:58 AM 15.8 °F -3.1 °F 8.6 °F 73% 29.49 in 8.0 mi South 25.3 mph 32.2 mph 0.00 in   Partly Cloudy
6:58 AM 16.0 °F -1.3 °F 7.9 °F 70% 29.47 in 9.0 mi South 20.7 mph 29.9 mph N/A   Scattered Clouds
7:25 AM 15.8 °F -1.5 °F 8.6 °F 73% 29.42 in 9.0 mi South 20.7 mph 28.8 mph N/A Snow Light Snow
7:35 AM 15.8 °F -1.1 °F 8.6 °F 73% 29.42 in 8.0 mi South 19.6 mph - N/A Snow Light Snow
7:38 AM 15.8 °F -1.1 °F 8.6 °F 73% 29.42 in 9.0 mi South 19.6 mph - N/A   Mostly Cloudy
7:58 AM 16.0 °F 0.1 °F 9.5 °F 76% 29.45 in 7.0 mi South 17.3 mph - 0.00 in   Overcast
8:05 AM 15.8 °F -0.6 °F 10.4 °F 79% 29.41 in 8.0 mi South 18.4 mph - N/A Snow Light Snow
8:40 AM 15.8 °F -1.9 °F 10.4 °F 79% 29.39 in 6.0 mi South 21.9 mph 27.6 mph N/A   Haze
8:58 AM 16.9 °F -0.9 °F 10.9 °F 77% 29.43 in 7.0 mi South 23.0 mph 29.9 mph 0.00 in   Overcast
8:59 AM 17.6 °F 0.1 °F 10.4 °F 73% 29.39 in 6.0 mi South 23.0 mph 29.9 mph N/A Snow Light Snow
9:18 AM 17.6 °F -0.3 °F 10.4 °F 73% 29.38 in 5.0 mi South 24.2 mph 33.4 mph N/A   Haze
9:19 AM 17.6 °F -0.6 °F 10.4 °F 73% 29.38 in 5.0 mi South 25.3 mph 33.4 mph N/A Snow Light Snow
9:24 AM 17.6 °F -1.0 °F 12.2 °F 79% 29.37 in 4.0 mi South 26.5 mph 35.7 mph N/A   Haze
9:25 AM 17.6 °F -1.6 °F 12.2 °F 79% 29.38 in 4.0 mi South 28.8 mph 35.7 mph N/A Snow Light Snow
9:29 AM 17.6 °F -0.3 °F 12.2 °F 79% 29.38 in 4.0 mi South 24.2 mph 35.7 mph N/A   Haze
9:32 AM 17.6 °F -0.6 °F 12.2 °F 79% 29.37 in 3.0 mi South 25.3 mph 35.7 mph N/A Snow Light Snow
9:35 AM 17.6 °F -0.6 °F 12.2 °F 79% 29.37 in 4.0 mi South 25.3 mph 31.1 mph N/A   Haze
9:58 AM 18.1 °F 0.8 °F 11.8 °F 76% 29.40 in 8.0 mi South 23.0 mph 31.1 mph 0.00 in   Clear
10:58 AM 19.6 °F 4.3 °F 11.7 °F 71% 29.38 in 9.0 mi South 18.4 mph 29.9 mph N/A   Partly Cloudy
11:26 AM 21.2 °F 5.2 °F 12.2 °F 68% 29.32 in 9.0 mi South 21.9 mph 33.4 mph N/A   Mostly Cloudy
11:36 AM 21.2 °F 5.2 °F 12.2 °F 68% 29.31 in 4.0 mi South 21.9 mph 31.1 mph N/A Snow Blowing Snow
11:46 AM 21.2 °F 4.9 °F 12.2 °F 68% 29.30 in 5.0 mi South 23.0 mph 29.9 mph N/A   Light Freezing Rain
11:58 AM 20.5 °F 5.5 °F 12.9 °F 73% 29.34 in 10.0 mi South 18.4 mph 27.6 mph 0.00 in   Light Freezing Rain
12:01 PM 21.2 °F 6.4 °F 12.2 °F 68% 29.29 in 10.0 mi South 18.4 mph 25.3 mph N/A   Overcast
12:13 PM 21.2 °F 6.8 °F 14.0 °F 74% 29.28 in 8.0 mi South 17.3 mph 21.9 mph N/A   Overcast
12:18 PM 21.2 °F 6.8 °F 14.0 °F 74% 29.28 in 5.0 mi South 17.3 mph 21.9 mph N/A   Overcast
12:31 PM 21.2 °F 6.0 °F 14.0 °F 74% 29.28 in 7.0 mi South 19.6 mph 27.6 mph N/A   Mostly Cloudy
12:36 PM 21.2 °F 7.3 °F 14.0 °F 74% 29.27 in 10.0 mi South 16.1 mph - N/A   Overcast
12:58 PM 21.2 °F 6.4 °F 13.5 °F 72% 29.29 in 10.0 mi South 18.4 mph 24.2 mph 0.00 in   Scattered Clouds
1:57 PM 21.2 °F 6.4 °F 14.0 °F 74% 29.23 in 10.0 mi South 18.4 mph - N/A   Scattered Clouds
1:58 PM 21.7 °F 6.7 °F 14.4 °F 73% 29.27 in 10.0 mi South 19.6 mph - N/A   Scattered Clouds
2:13 PM 21.2 °F 7.3 °F 15.8 °F 80% 29.22 in 8.0 mi South 16.1 mph - N/A   Mostly Cloudy
2:30 PM 21.2 °F 7.8 °F 15.8 °F 80% 29.22 in 8.0 mi South 15.0 mph - N/A   Overcast
2:40 PM 21.2 °F 8.3 °F 15.8 °F 80% 29.22 in 10.0 mi South 13.8 mph - N/A   Scattered Clouds
2:50 PM 21.2 °F 7.8 °F 15.8 °F 80% 29.22 in 9.0 mi South 15.0 mph - N/A   Mostly Cloudy
2:55 PM 21.2 °F 7.8 °F 15.8 °F 80% 29.22 in 9.0 mi South 15.0 mph - N/A   Scattered Clouds
2:58 PM 21.7 °F 8.0 °F 16.0 °F 78% 29.26 in 9.0 mi South 16.1 mph - 0.00 in   Scattered Clouds
3:03 PM 21.2 °F 7.3 °F 15.8 °F 80% 29.22 in 10.0 mi South 16.1 mph - N/A   Mostly Cloudy
3:11 PM 21.2 °F 6.4 °F 15.8 °F 80% 29.21 in 7.0 mi South 18.4 mph - N/A   Mostly Cloudy
3:14 PM 21.2 °F 7.3 °F 15.8 °F 80% 29.21 in 7.0 mi South 16.1 mph - N/A   Mostly Cloudy
3:24 PM 21.2 °F 7.3 °F 15.8 °F 80% 29.21 in 7.0 mi South 16.1 mph - N/A   Overcast
3:34 PM 21.2 °F 6.8 °F 15.8 °F 80% 29.21 in 7.0 mi South 17.3 mph - N/A   Overcast
3:44 PM 21.2 °F 7.8 °F 15.8 °F 80% 29.21 in 9.0 mi South 15.0 mph - N/A   Overcast
3:58 PM 21.9 °F 8.7 °F 16.2 °F 78% 29.25 in 10.0 mi South 15.0 mph - 0.00 in   Overcast
4:28 PM 21.2 °F 8.3 °F 15.8 °F 80% 29.21 in 10.0 mi South 13.8 mph - N/A   Overcast
4:53 PM 21.2 °F 6.8 °F 15.8 °F 80% 29.20 in 10.0 mi South 17.3 mph - N/A   Overcast
4:58 PM 22.1 °F 9.5 °F 16.3 °F 79% 29.24 in 10.0 mi South 13.8 mph - N/A   Overcast
5:03 PM 21.2 °F 8.3 °F 15.8 °F 80% 29.20 in 10.0 mi South 13.8 mph - N/A   Overcast
5:08 PM 21.2 °F 8.9 °F 15.8 °F 80% 29.20 in 10.0 mi South 12.7 mph - N/A   Overcast
5:43 PM 21.2 °F 9.5 °F 17.6 °F 86% 29.21 in 10.0 mi SE 11.5 mph - N/A   Overcast
5:58 PM 20.5 °F 8.6 °F 16.9 °F 86% 29.24 in 10.0 mi SSE 11.5 mph - N/A   Overcast
6:00 PM 21.2 °F 9.5 °F 17.6 °F 86% 29.21 in 10.0 mi SSE 11.5 mph - N/A   Overcast
6:53 PM 21.2 °F 8.9 °F 19.4 °F 93% 29.23 in 3.0 mi SW 12.7 mph - N/A Snow Light Snow
6:58 PM 21.2 °F 8.9 °F 19.4 °F 93% 29.28 in 0.8 mi WSW 12.7 mph 21.9 mph 0.00 in Snow Light Snow
7:03 PM 23.0 °F 13.9 °F 21.2 °F 93% 29.25 in 0.5 mi WNW 8.1 mph 21.9 mph N/A Fog , Snow Light Freezing Fog
7:08 PM 21.2 °F 10.1 °F 19.4 °F 93% 29.25 in 0.8 mi West 10.4 mph - N/A Snow Light Snow
7:13 PM 21.2 °F 11.7 °F 19.4 °F 93% 29.25 in 1.0 mi West 8.1 mph - N/A Snow Light Snow
7:18 PM 21.2 °F 9.5 °F 19.4 °F 93% 29.26 in 1.0 mi West 11.5 mph - N/A Snow Light Snow
7:28 PM 21.2 °F 7.3 °F 19.4 °F 93% 29.27 in 1.0 mi West 16.1 mph 23.0 mph N/A Snow Light Snow
7:33 PM 19.4 °F 7.2 °F 17.6 °F 93% 29.27 in 1.2 mi West 11.5 mph 23.0 mph N/A Snow Light Snow
7:38 PM 19.4 °F 8.6 °F 17.6 °F 93% 29.28 in 1.8 mi West 9.2 mph 19.6 mph N/A Snow Light Snow
7:43 PM 19.4 °F 8.6 °F 17.6 °F 93% 29.29 in 2.0 mi West 9.2 mph - N/A Snow Light Snow
7:58 PM 19.4 °F 7.2 °F 15.8 °F 86% 29.34 in 3.0 mi West 11.5 mph - 0.00 in Snow Light Snow
8:13 PM 17.6 °F 4.3 °F 14.0 °F 86% 29.31 in 2.5 mi West 12.7 mph 18.4 mph N/A Snow Light Snow
8:18 PM 17.6 °F 4.3 °F 14.0 °F 86% 29.31 in 1.2 mi West 12.7 mph 19.6 mph N/A Snow Light Snow
8:23 PM 17.6 °F 3.7 °F 14.0 °F 86% 29.32 in 1.0 mi West 13.8 mph 19.6 mph N/A Snow Light Snow
8:28 PM 17.6 °F 5.0 °F 14.0 °F 86% 29.32 in 1.0 mi West 11.5 mph - N/A Snow Light Snow
8:33 PM 17.6 °F 5.7 °F 14.0 °F 86% 29.33 in 1.2 mi West 10.4 mph 19.6 mph N/A Snow Light Snow
8:43 PM 15.8 °F 2.1 °F 14.0 °F 93% 29.34 in 1.0 mi West 12.7 mph 19.6 mph N/A Snow Light Snow
8:48 PM 15.8 °F 2.1 °F 14.0 °F 93% 29.35 in 1.0 mi West 12.7 mph 20.7 mph N/A Snow Light Snow
8:58 PM 15.6 °F 1.8 °F 13.1 °F 90% 29.40 in 1.0 mi WNW 12.7 mph 23.0 mph 0.00 in Snow Light Snow
9:03 PM 14.0 °F -0.8 °F 12.2 °F 93% 29.36 in 1.5 mi WNW 13.8 mph 23.0 mph N/A Snow Light Snow
9:08 PM 14.0 °F 1.2 °F 10.4 °F 86% 29.37 in 2.5 mi WNW 10.4 mph 20.7 mph N/A Snow Light Snow
9:13 PM 14.0 °F -0.8 °F 8.6 °F 79% 29.37 in 3.0 mi WNW 13.8 mph 21.9 mph N/A Snow Light Snow
9:18 PM 12.2 °F -1.0 °F 8.6 °F 85% 29.38 in 7.0 mi WNW 10.4 mph 21.9 mph N/A Snow Light Snow
9:58 PM 11.1 °F -5.7 °F 0.1 °F 61% 29.46 in 8.0 mi West 16.1 mph 26.5 mph 0.00 in Snow Light Snow
10:49 PM 8.6 °F -7.0 °F -5.8 °F 52% 29.45 in 10.0 mi West 12.7 mph 21.9 mph N/A   Clear
10:58 PM 7.9 °F -9.9 °F -6.0 °F 53% 29.49 in 10.0 mi West 16.1 mph 21.9 mph 0.00 in   Clear
11:58 PM 5.0 °F -11.6 °F -6.3 °F 60% 29.52 in 10.0 mi West 12.7 mph 17.3 mph N/A   Clear